Home > Weather > Nzérékoré > Past weeks

Flag for Guinea Past Weather in Nzérékoré, Guinea — Yesterday and Last 2 Weeks

Now
73 °F

Rain. Mostly cloudy.


Feels Like: 68 °F
Forecast: 70 / 84 °F
Wind: No wind

Location: Roberts Field

Current Time: Jun 29, 2016 at 5:41:27 AM

Latest Report: Jun 29, 2016 at 4:00 AM


Visibility: 2 mi

Pressure: 29.98 "Hg

Humidity: 100%

Dew Point: 73 °F

Location of NzérékoréLocation

Past Weather in Nzérékoré — Graph

°F

Nzérékoré Temperature Yesterday

Maximum temperature yesterday: 81 °F (at 3:00 PM)
Minimum temperature yesterday: 75 °F (at 12:00 AM)
Average temperature yesterday: 77 °F

High & Low Weather Summary for the Past Weeks

 TemperatureHumidityPressure
High86 °F (Jun 19, 12:30 PM)100% (Jun 19, 12:00 AM)30.09 "Hg (Jun 19, 12:00 AM)
Low72 °F (Jun 16, 3:00 AM)70% (Jun 26, 1:00 PM)29.89 "Hg (Jun 21, 4:00 PM)
Average78 °F90%29.98 "Hg
* Reported Jun 14 4:00 AM — Jun 29 4:00 AM, Nzérékoré, Weather by CustomWeather, © 2016

Note: Actual official high and low records may vary slightly from our data, if they occured in-between our weather recording intervals... More about our weather records

Advertising

Nzérékoré Weather History for the Previous 24 Hours

Scroll right to see more
 ConditionsComfort  
Time TempWeatherWind HumidityBarometerVisibility
4:00 AM
Wed, Jun 29
73 °FRain. Mostly cloudy.No wind100%29.98 "Hg2 mi
2:00 AM73 °FRain. Mostly cloudy.No wind100%30.01 "Hg2 mi
1:00 AM75 °FRain. Mostly cloudy.No wind94%30.01 "Hg2 mi
12:30 AM75 °FRain. Mostly cloudy.No wind94%30.01 "Hg2 mi
12:00 AM75 °FHeavy rain. Mostly cloudy.No wind94%30.01 "Hg1 mi
11:30 PM
Tue, Jun 28
75 °FRain. Mostly cloudy.No wind94%30.01 "Hg2 mi
11:00 PM75 °FRain. Mostly cloudy.No wind94%30.04 "Hg1 mi
10:30 PM75 °FRain. Mostly cloudy.No wind94%30.01 "Hg1 mi
10:00 PM75 °FRain. Mostly cloudy.No wind94%30.01 "Hg1 mi
9:30 PM75 °FRain. Mostly cloudy.No wind94%30.01 "Hg2 mi
9:00 PM75 °FRain. Mostly cloudy.No wind94%30.01 "Hg2 mi
8:30 PM75 °FRain. Mostly cloudy.No wind94%29.98 "Hg2 mi
8:00 PM77 °FLight rain. Partly cloudy.No wind94%29.95 "Hg2 mi
7:30 PM77 °FRain. Broken clouds.No wind94%29.95 "Hg2 mi
7:00 PM77 °FLight rain. Broken clouds.No wind94%29.95 "Hg4 mi
6:30 PM77 °FLight rain. Partly sunny.No wind94%29.95 "Hg4 mi
6:00 PM77 °FThunderstorms. Partly sunny.No wind94%29.92 "Hg3 mi
5:30 PM77 °FThunderstorms. Broken clouds.No wind94%29.92 "Hg2 mi
5:00 PM77 °FThunderstorms. Broken clouds.No wind94%29.92 "Hg2 mi
4:30 PM77 °FLight rain. Broken clouds.14 mph94%29.92 "Hg2 mi
4:00 PM77 °FRain. Broken clouds.14 mph94%29.92 "Hg1 mi
3:30 PM79 °FLight rain. Partly sunny.3 mph94%29.92 "Hg3 mi
3:00 PM81 °FPartly sunny.12 mph84%29.95 "HgN/A
2:30 PM79 °FPartly sunny.6 mph89%29.95 "HgN/A
2:00 PM79 °FPartly sunny.5 mph94%29.95 "HgN/A
1:30 PM79 °FPartly sunny.10 mph94%29.98 "HgN/A
1:00 PM79 °FDrizzle. Broken clouds.13 mph94%29.98 "Hg4 mi
12:30 PM79 °FLight rain. Partly sunny.3 mph94%29.98 "Hg5 mi
12:00 PM79 °FLight rain. Partly sunny.No wind94%N/A5 mi
10:30 AM79 °FPartly sunny.5 mph94%N/AN/A
10:00 AM79 °FLight rain. Partly sunny.No wind94%N/A5 mi
9:00 AM79 °FLight rain. Partly sunny.No wind94%N/A5 mi
8:30 AM79 °FPartly sunny.No wind94%N/AN/A
8:00 AM79 °FPartly sunny.No wind89%N/AN/A
7:30 AM77 °FPartly sunny.No wind94%N/AN/A
7:00 AM77 °FPassing clouds.No wind94%N/AN/A
6:30 AM77 °FThunderstorms. Passing clouds.No wind94%N/AN/A
6:00 AM75 °FThunderstorms. Passing clouds.No wind94%N/AN/A
5:30 AM75 °FThunderstorms. Passing clouds.No wind94%N/AN/A
5:00 AM75 °FThunderstorms. Passing clouds.No wind94%N/A6 mi
Weather by CustomWeather, © 2016

See weather overviewHow to use our weather pages